Hourly Data Report for June 14, 2021

WINNIPEG THE FORKS
MANITOBA
Current Station Operator: ECCC - MSC

49°53'18.008" N
97°07'46.007" W
230.00 m
5023262
71579
XWN

Download Data

Hourly Data (June 2021)
Hourly Data Report for June 14, 2021
TIME
LST
Temp Definition
°C
Dew Point Definition
°C
Rel Hum Definition
%
Precip. Amount Definition
mm

Wind Dir Definition
10's deg

Wind Spd Definition
km/h
Visibility Definition
km
Stn Press Definition
kPa
Hmdx Definition


Wind Chill Definition


Weather Definition


00:00 20.2 6.5 41 0.0 34 5   98.98     LegendNANA
01:00 19.8 6.9 43 0.0 30 1   99.03     LegendNANA
02:00 19.0 7.1 46 0.0 0 1   99.06     LegendNANA
03:00 17.1 9.2 60 0.0   0   99.09     LegendNANA
04:00 15.5 9.9 69 0.0   0   99.15     LegendNANA
05:00 15.3 10.9 75 0.0 6 1   99.21     LegendNANA
06:00 17.4 9.1 58 0.0 35 5   99.28     LegendNANA
07:00 19.9 8.7 49 0.0 35 6   99.30     LegendNANA
08:00 21.4 9.8 47 0.0 1 7   99.33     LegendNANA
09:00 22.5 8.4 41 0.0 34 9   99.34     LegendNANA
10:00 23.2 10.6 45 0.0 35 9   99.35 25   LegendNANA
11:00 23.7 11.3 46 0.0 2 7   99.35 26   LegendNANA
12:00 24.9 7.9 34 0.0 34 12   99.37 25   LegendNANA
13:00 25.5 7.2 31 0.0 1 11   99.36 26   LegendNANA
14:00 25.4 10.3 39 0.0 1 12   99.37 27   LegendNANA
15:00 25.2 9.4 37 0.0 1 11   99.37 26   LegendNANA
16:00 25.4 10.0 38 0.0 36 9   99.39 27   LegendNANA
17:00 25.2 8.6 35 0.0 35 8   99.37 26   LegendNANA
18:00 24.6 7.0 32 0.0 2 11   99.35 25   LegendNANA
19:00 23.8 7.0 34 0.0 35 10   99.38     LegendNANA
20:00 21.8 8.5 42 0.0 35 6   99.39     LegendNANA
21:00 20.7 7.8 43 0.0 2 5   99.42     LegendNANA
22:00 19.6 9.0 51 0.0 2 3   99.44     LegendNANA
23:00 18.5 10.0 57 0.0 2 2   99.46     LegendNANA

Notes on Data Quality.

Legend

  • E = Estimated
  • M = Missing
  • NA = Not Available*
  • [empty] = Indicates an unobserved value
Date modified: